Time,TemperatureF,DewpointF,PressureIn,WindDirection,WindDirectionDegrees,WindSpeedMPH,WindSpeedGustMPH,Humidity,HourlyPrecipIn,Conditions,Clouds,dailyrainin,SolarRadiationWatts/m^2,SoftwareType,DateUTC
2013-01-22 00:02:00,32.0,32.0,-100.00,West,273,0.0,2.0,100,0.00,,,-99.99,0.000000,,2013-01-22 09:02:00,
2013-01-22 00:11:00,32.0,32.0,-100.00,West,273,0.0,2.0,100,0.00,,,-99.99,0.000000,,2013-01-22 09:11:00,
2013-01-22 00:22:00,32.0,32.0,-100.00,West,273,0.0,2.0,100,0.00,,,-99.99,0.000000,,2013-01-22 09:22:00,
2013-01-22 00:43:00,32.0,32.0,-100.00,WSW,243,0.0,2.0,100,0.00,,,0.00,0.000000,,2013-01-22 09:43:00,
2013-01-22 00:52:00,32.0,32.0,-100.00,WSW,243,0.0,2.0,100,0.00,,,0.00,0.000000,,2013-01-22 09:52:00,
2013-01-22 01:02:00,32.0,32.0,-100.00,WSW,243,0.0,2.0,100,0.00,,,0.00,0.000000,,2013-01-22 10:02:00,
2013-01-22 01:11:00,32.0,32.0,-100.00,WSW,243,0.0,2.0,100,0.00,,,0.00,0.000000,,2013-01-22 10:11:00,
2013-01-22 01:22:00,32.0,32.0,-100.00,WSW,243,0.0,2.0,100,0.00,,,0.00,0.000000,,2013-01-22 10:22:00,
2013-01-22 01:42:00,32.0,32.0,-100.00,West,268,0.0,2.0,100,0.00,,,0.00,0.000000,,2013-01-22 10:42:00,
2013-01-22 01:52:00,32.0,32.0,-100.00,West,268,0.0,2.0,100,0.00,,,0.00,0.000000,,2013-01-22 10:52:00,
2013-01-22 02:02:00,32.0,32.0,-100.00,West,268,0.0,2.0,100,0.00,,,0.00,0.000000,,2013-01-22 11:02:00,
2013-01-22 02:12:00,32.0,32.0,-100.00,West,268,0.0,2.0,100,0.00,,,0.00,0.000000,,2013-01-22 11:12:00,
2013-01-22 02:22:00,32.0,32.0,-100.00,West,268,0.0,2.0,100,0.00,,,0.00,0.000000,,2013-01-22 11:22:00,
2013-01-22 02:43:00,32.0,32.0,-100.00,West,261,0.0,2.0,100,0.00,,,-99.99,0.000000,,2013-01-22 11:43:00,
2013-01-22 02:53:00,32.0,32.0,-100.00,West,261,0.0,2.0,100,0.00,,,-99.99,0.000000,,2013-01-22 11:53:00,
2013-01-22 03:03:00,32.0,32.0,-100.00,West,261,0.0,2.0,100,0.00,,,-99.99,0.000000,,2013-01-22 12:03:00,
2013-01-22 03:12:00,32.0,32.0,-100.00,West,261,0.0,2.0,100,0.00,,,-99.99,0.000000,,2013-01-22 12:12:00,
2013-01-22 03:22:00,32.0,32.0,-100.00,West,261,0.0,2.0,100,0.00,,,-99.99,0.000000,,2013-01-22 12:22:00,
2013-01-22 03:43:00,32.0,32.0,-100.00,WSW,248,0.0,1.0,100,0.00,,,0.00,0.000000,,2013-01-22 12:43:00,
2013-01-22 03:53:00,32.0,32.0,-100.00,WSW,248,0.0,1.0,100,0.00,,,0.00,0.000000,,2013-01-22 12:53:00,
2013-01-22 04:03:00,32.0,32.0,-100.00,WSW,248,0.0,1.0,100,0.00,,,0.00,0.000000,,2013-01-22 13:03:00,
2013-01-22 04:13:00,32.0,32.0,-100.00,WSW,248,0.0,1.0,100,0.00,,,0.00,0.000000,,2013-01-22 13:13:00,
2013-01-22 04:22:00,32.0,32.0,-100.00,WSW,248,0.0,1.0,100,0.00,,,0.00,0.000000,,2013-01-22 13:22:00,
2013-01-22 04:43:00,30.0,30.0,-100.00,SW,233,0.0,2.0,100,0.00,,,0.00,0.000000,,2013-01-22 13:43:00,
2013-01-22 04:53:00,30.0,30.0,-100.00,SW,233,0.0,2.0,100,0.00,,,0.00,0.000000,,2013-01-22 13:53:00,
2013-01-22 05:02:00,30.0,30.0,-100.00,SW,233,0.0,2.0,100,0.00,,,0.00,0.000000,,2013-01-22 14:02:00,
2013-01-22 05:12:00,30.0,30.0,-100.00,SW,233,0.0,2.0,100,0.00,,,0.00,0.000000,,2013-01-22 14:12:00,
2013-01-22 05:22:00,30.0,30.0,-100.00,SW,233,0.0,2.0,100,0.00,,,0.00,0.000000,,2013-01-22 14:22:00,
2013-01-22 05:44:00,30.0,30.0,-100.00,West,260,0.0,2.0,100,0.00,,,0.00,0.000000,,2013-01-22 14:44:00,
2013-01-22 05:53:00,30.0,30.0,-100.00,West,260,0.0,2.0,100,0.00,,,0.00,0.000000,,2013-01-22 14:53:00,
2013-01-22 06:03:00,30.0,30.0,-100.00,West,260,0.0,2.0,100,0.00,,,0.00,0.000000,,2013-01-22 15:03:00,
2013-01-22 06:12:00,30.0,30.0,-100.00,West,260,0.0,2.0,100,0.00,,,0.00,0.000000,,2013-01-22 15:12:00,
2013-01-22 06:22:00,30.0,30.0,-100.00,West,260,0.0,2.0,100,0.00,,,0.00,0.000000,,2013-01-22 15:22:00,
2013-01-22 06:44:00,30.0,30.0,-100.00,WSW,248,0.0,2.0,100,0.00,,,0.00,0.000000,,2013-01-22 15:44:00,
2013-01-22 06:53:00,30.0,30.0,-100.00,WSW,248,0.0,2.0,100,0.00,,,0.00,0.000000,,2013-01-22 15:53:00,
2013-01-22 07:03:00,30.0,30.0,-100.00,WSW,248,0.0,2.0,100,0.00,,,0.00,0.000000,,2013-01-22 16:03:00,
2013-01-22 07:12:00,30.0,30.0,-100.00,WSW,248,0.0,2.0,100,0.00,,,0.00,0.000000,,2013-01-22 16:12:00,
2013-01-22 07:22:00,30.0,30.0,-100.00,WSW,248,0.0,2.0,100,0.00,,,0.00,0.000000,,2013-01-22 16:22:00,
2013-01-22 07:43:00,30.0,30.0,-100.00,WSW,250,0.0,2.0,100,0.00,,,0.00,0.000000,,2013-01-22 16:43:00,
2013-01-22 07:54:00,30.0,30.0,-100.00,WSW,250,0.0,2.0,100,0.00,,,0.00,0.000000,,2013-01-22 16:54:00,
2013-01-22 08:03:00,30.0,30.0,-100.00,WSW,250,0.0,2.0,100,0.00,,,0.00,0.000000,,2013-01-22 17:03:00,
2013-01-22 08:12:00,30.0,30.0,-100.00,WSW,250,0.0,2.0,100,0.00,,,0.00,0.000000,,2013-01-22 17:12:00,
2013-01-22 08:22:00,30.0,30.0,-100.00,WSW,250,0.0,2.0,100,0.00,,,0.00,0.000000,,2013-01-22 17:22:00,
2013-01-22 08:44:00,30.0,30.0,-100.00,West,259,0.0,2.0,100,0.00,,,0.00,0.000000,,2013-01-22 17:44:00,
2013-01-22 08:53:00,30.0,30.0,-100.00,West,259,0.0,2.0,100,0.00,,,0.00,0.000000,,2013-01-22 17:53:00,
2013-01-22 09:03:00,30.0,30.0,-100.00,West,259,0.0,2.0,100,0.00,,,0.00,0.000000,,2013-01-22 18:03:00,
2013-01-22 09:12:00,30.0,30.0,-100.00,West,259,0.0,2.0,100,0.00,,,0.00,0.000000,,2013-01-22 18:12:00,
2013-01-22 09:22:00,30.0,30.0,-100.00,West,259,0.0,2.0,100,0.00,,,0.00,0.000000,,2013-01-22 18:22:00,
2013-01-22 09:44:00,30.0,30.0,-100.00,SW,230,0.0,2.0,100,0.00,,,0.00,1.000000,,2013-01-22 18:44:00,
2013-01-22 09:53:00,30.0,30.0,-100.00,SW,230,0.0,2.0,100,0.00,,,0.00,1.000000,,2013-01-22 18:53:00,
2013-01-22 10:03:00,30.0,30.0,-100.00,SW,230,0.0,2.0,100,0.00,,,0.00,1.000000,,2013-01-22 19:03:00,
2013-01-22 10:13:00,30.0,30.0,-100.00,SW,230,0.0,2.0,100,0.00,,,0.00,1.000000,,2013-01-22 19:13:00,
2013-01-22 10:22:00,30.0,30.0,-100.00,SW,230,0.0,2.0,100,0.00,,,0.00,1.000000,,2013-01-22 19:22:00,
2013-01-22 10:43:00,30.0,30.0,-100.00,WNW,282,0.0,2.0,100,0.00,,,0.00,7.000000,,2013-01-22 19:43:00,
2013-01-22 10:54:00,30.0,30.0,-100.00,WNW,282,0.0,2.0,100,0.00,,,0.00,7.000000,,2013-01-22 19:54:00,
2013-01-22 11:03:00,30.0,30.0,-100.00,WNW,282,0.0,2.0,100,0.00,,,0.00,7.000000,,2013-01-22 20:03:00,
2013-01-22 11:12:00,30.0,30.0,-100.00,WNW,282,0.0,2.0,100,0.00,,,0.00,7.000000,,2013-01-22 20:12:00,
2013-01-22 11:22:00,30.0,30.0,-100.00,WNW,282,0.0,2.0,100,0.00,,,0.00,7.000000,,2013-01-22 20:22:00,
2013-01-22 11:43:00,32.0,32.0,-100.00,West,273,0.0,2.0,100,0.00,,,0.00,15.000000,,2013-01-22 20:43:00,
2013-01-22 11:53:00,32.0,32.0,-100.00,West,273,0.0,2.0,100,0.00,,,0.00,15.000000,,2013-01-22 20:53:00,
2013-01-22 12:03:00,32.0,32.0,-100.00,West,273,0.0,2.0,100,0.00,,,0.00,15.000000,,2013-01-22 21:03:00,
2013-01-22 12:12:00,32.0,32.0,-100.00,West,273,0.0,2.0,100,0.00,,,0.00,15.000000,,2013-01-22 21:12:00,
2013-01-22 12:22:00,32.0,32.0,-100.00,West,273,0.0,2.0,100,0.00,,,0.00,15.000000,,2013-01-22 21:22:00,
2013-01-22 12:43:00,32.0,32.0,-100.00,West,260,0.0,2.0,100,0.00,,,0.00,71.000000,,2013-01-22 21:43:00,
2013-01-22 12:53:00,32.0,32.0,-100.00,West,260,0.0,2.0,100,0.00,,,0.00,71.000000,,2013-01-22 21:53:00,
2013-01-22 13:02:00,32.0,32.0,-100.00,West,260,0.0,2.0,100,0.00,,,0.00,71.000000,,2013-01-22 22:02:00,
2013-01-22 13:12:00,32.0,32.0,-100.00,West,260,0.0,2.0,100,0.00,,,0.00,71.000000,,2013-01-22 22:12:00,
2013-01-22 13:22:00,32.0,32.0,-100.00,West,260,0.0,2.0,100,0.00,,,0.00,71.000000,,2013-01-22 22:22:00,
2013-01-22 13:43:00,34.0,34.0,-100.00,WSW,249,0.0,2.0,99,0.00,,,-99.99,108.000000,,2013-01-22 22:43:00,
2013-01-22 13:53:00,34.0,34.0,-100.00,WSW,249,0.0,2.0,99,0.00,,,-99.99,108.000000,,2013-01-22 22:53:00,
2013-01-22 14:02:00,34.0,34.0,-100.00,WSW,249,0.0,2.0,99,0.00,,,-99.99,108.000000,,2013-01-22 23:02:00,
2013-01-22 14:12:00,34.0,34.0,-100.00,WSW,249,0.0,2.0,99,0.00,,,-99.99,108.000000,,2013-01-22 23:12:00,
2013-01-22 14:43:00,32.0,32.0,-100.00,SW,219,0.0,2.0,100,0.01,,,-99.99,58.000000,,2013-01-22 23:43:00,
2013-01-22 14:53:00,32.0,32.0,-100.00,SW,219,0.0,2.0,100,0.01,,,-99.99,58.000000,,2013-01-22 23:53:00,
2013-01-22 15:02:00,32.0,32.0,-100.00,SW,219,0.0,2.0,100,0.01,,,-99.99,58.000000,,2013-01-23 00:02:00,
2013-01-22 15:12:00,32.0,32.0,-100.00,SW,219,0.0,2.0,100,0.01,,,-99.99,58.000000,,2013-01-23 00:12:00,
2013-01-22 15:22:00,32.0,32.0,-100.00,SW,219,0.0,2.0,100,0.01,,,-99.99,58.000000,,2013-01-23 00:22:00,
2013-01-22 15:43:00,32.0,32.0,-100.00,WNW,287,0.0,4.0,100,-99.99,,,-99.99,31.000000,,2013-01-23 00:43:00,
2013-01-22 15:52:00,32.0,32.0,-100.00,WNW,287,0.0,4.0,100,-99.99,,,-99.99,31.000000,,2013-01-23 00:52:00,
2013-01-22 16:02:00,32.0,32.0,-100.00,WNW,287,0.0,4.0,100,-99.99,,,-99.99,31.000000,,2013-01-23 01:02:00,
2013-01-22 16:12:00,32.0,32.0,-100.00,WNW,287,0.0,4.0,100,-99.99,,,-99.99,31.000000,,2013-01-23 01:12:00,
2013-01-22 16:22:00,32.0,32.0,-100.00,WNW,287,0.0,4.0,100,-99.99,,,-99.99,31.000000,,2013-01-23 01:22:00,
2013-01-22 16:43:00,32.0,32.0,-100.00,South,187,1.0,3.0,100,0.00,,,-99.99,11.000000,,2013-01-23 01:43:00,
2013-01-22 16:53:00,32.0,32.0,-100.00,South,187,1.0,3.0,100,0.00,,,-99.99,11.000000,,2013-01-23 01:53:00,
2013-01-22 17:03:00,32.0,32.0,-100.00,South,187,1.0,3.0,100,0.00,,,-99.99,11.000000,,2013-01-23 02:03:00,
2013-01-22 17:12:00,32.0,32.0,-100.00,South,187,1.0,3.0,100,0.00,,,-99.99,11.000000,,2013-01-23 02:12:00,
2013-01-22 17:22:00,32.0,32.0,-100.00,South,187,1.0,3.0,100,0.00,,,-99.99,11.000000,,2013-01-23 02:22:00,
2013-01-22 17:43:00,32.0,32.0,-100.00,West,275,0.0,2.0,100,0.00,,,0.00,0.000000,,2013-01-23 02:43:00,
2013-01-22 17:53:00,32.0,32.0,-100.00,West,275,0.0,2.0,100,0.00,,,0.00,0.000000,,2013-01-23 02:53:00,
2013-01-22 18:03:00,32.0,32.0,-100.00,West,275,0.0,2.0,100,0.00,,,0.00,0.000000,,2013-01-23 03:03:00,
2013-01-22 18:12:00,32.0,32.0,-100.00,West,275,0.0,2.0,100,0.00,,,0.00,0.000000,,2013-01-23 03:12:00,
2013-01-22 18:22:00,32.0,32.0,-100.00,West,275,0.0,2.0,100,0.00,,,0.00,0.000000,,2013-01-23 03:22:00,
2013-01-22 18:43:00,32.0,32.0,-100.00,WNW,286,1.0,2.0,100,0.00,,,0.00,0.000000,,2013-01-23 03:43:00,
2013-01-22 18:53:00,32.0,32.0,-100.00,WNW,286,1.0,2.0,100,0.00,,,0.00,0.000000,,2013-01-23 03:53:00,
2013-01-22 19:03:00,32.0,32.0,-100.00,WNW,286,1.0,2.0,100,0.00,,,0.00,0.000000,,2013-01-23 04:03:00,
2013-01-22 19:12:00,32.0,32.0,-100.00,WNW,286,1.0,2.0,100,0.00,,,0.00,0.000000,,2013-01-23 04:12:00,
2013-01-22 19:22:00,32.0,32.0,-100.00,WNW,286,1.0,2.0,100,0.00,,,0.00,0.000000,,2013-01-23 04:22:00,
2013-01-22 19:43:00,32.0,32.0,-100.00,South,188,1.0,3.0,100,0.00,,,0.00,0.000000,,2013-01-23 04:43:00,
2013-01-22 19:53:00,32.0,32.0,-100.00,South,188,1.0,3.0,100,0.00,,,0.00,0.000000,,2013-01-23 04:53:00,
2013-01-22 20:03:00,32.0,32.0,-100.00,South,188,1.0,3.0,100,0.00,,,0.00,0.000000,,2013-01-23 05:03:00,
2013-01-22 20:12:00,32.0,32.0,-100.00,South,188,1.0,3.0,100,0.00,,,0.00,0.000000,,2013-01-23 05:12:00,
2013-01-22 20:22:00,32.0,32.0,-100.00,South,188,1.0,3.0,100,0.00,,,0.00,0.000000,,2013-01-23 05:22:00,
2013-01-22 20:43:00,32.0,32.0,-100.00,NW,311,0.0,1.0,100,0.00,,,-99.99,0.000000,,2013-01-23 05:43:00,
2013-01-22 20:53:00,32.0,32.0,-100.00,NW,311,0.0,1.0,100,0.00,,,-99.99,0.000000,,2013-01-23 05:53:00,
2013-01-22 21:02:00,32.0,32.0,-100.00,NW,311,0.0,1.0,100,0.00,,,-99.99,0.000000,,2013-01-23 06:02:00,
2013-01-22 21:12:00,32.0,32.0,-100.00,NW,311,0.0,1.0,100,0.00,,,-99.99,0.000000,,2013-01-23 06:12:00,
2013-01-22 21:22:00,32.0,32.0,-100.00,NW,311,0.0,1.0,100,0.00,,,-99.99,0.000000,,2013-01-23 06:22:00,
2013-01-22 21:43:00,32.0,32.0,-100.00,SSW,196,0.0,2.0,100,0.00,,,0.00,0.000000,,2013-01-23 06:43:00,
2013-01-22 21:53:00,32.0,32.0,-100.00,SSW,196,0.0,2.0,100,0.00,,,0.00,0.000000,,2013-01-23 06:53:00,
2013-01-22 22:02:00,32.0,32.0,-100.00,SSW,196,0.0,2.0,100,0.00,,,0.00,0.000000,,2013-01-23 07:02:00,
2013-01-22 22:12:00,32.0,32.0,-100.00,SSW,196,0.0,2.0,100,0.00,,,0.00,0.000000,,2013-01-23 07:12:00,
2013-01-22 22:22:00,32.0,32.0,-100.00,SSW,196,0.0,2.0,100,0.00,,,0.00,0.000000,,2013-01-23 07:22:00,
2013-01-22 22:43:00,32.0,32.0,-100.00,WNW,283,0.0,2.0,100,0.00,,,0.00,0.000000,,2013-01-23 07:43:00,
2013-01-22 22:53:00,32.0,32.0,-100.00,WNW,283,0.0,2.0,100,0.00,,,0.00,0.000000,,2013-01-23 07:53:00,
2013-01-22 23:02:00,32.0,32.0,-100.00,WNW,283,0.0,2.0,100,0.00,,,0.00,0.000000,,2013-01-23 08:02:00,
2013-01-22 23:22:00,32.0,32.0,-100.00,WNW,283,0.0,2.0,100,0.00,,,0.00,0.000000,,2013-01-23 08:22:00,
2013-01-22 23:43:00,32.0,32.0,-100.00,NW,312,0.0,4.0,100,0.00,,,0.00,0.000000,,2013-01-23 08:43:00,
2013-01-22 23:53:00,32.0,32.0,-100.00,NW,312,0.0,4.0,100,0.00,,,0.00,0.000000,,2013-01-23 08:53:00,